Вернуться в каталог

STARLINK-30454

АктивенСвязьVLEO
NORAD 57915·PAYLOAD·🇺🇸 United States

Запущен Sep 24, 2023 с Cape Canaveral Space Force Station

Loading…

Ближайшие Пролёты (ближайшие 24 часа)

TLE

СвежийSource: CelesTrak SupGP

Эпоха: Sep 14, 2026, 21:46 UTC

1 57915C 23147C   26257.90743056 -.00023835  00000+0 -86321-3 0  2572
2 57915  43.0035 336.4307 0001411 267.2608 268.1853 15.27594313    12

Отслеживайте STARLINK-30454 в реальном времени с AllMySat

Download on the App Store